CW0774 Weather Reports


time (UTC)temp
C
wind
direction
speed
KPH
gust
KPH
rain 1hr
cm
rain 24hr
cm
rain mn
cm
humidity
%
barometer
mb
20260508045914 8 13 0.0 0.0 0.00 0.00 0.00 63 1012.5
20260508045415 8 13 0.0 0.0 0.00 0.00 0.00 64 1012.6
20260508044914 8 13 0.0 0.0 0.00 0.00 0.00 65 1012.6
20260508044415 8 13 0.0 0.0 0.00 0.00 0.00 64 1012.6
20260508042914 8 13 0.0 0.0 0.00 0.00 0.00 62 1012.5
20260508042413 8 13 0.0 0.0 0.00 0.00 0.00 63 1012.5
20260508041914 8 13 0.0 0.0 0.00 0.00 0.00 64 1012.6
20260508041414 8 13 0.0 0.0 0.00 0.00 0.00 64 1012.6
20260508040914 8 13 0.0 0.0 0.00 0.00 0.00 64 1012.6
20260508040449 8 13 0.0 0.0 0.00 0.00 0.00 63 1012.6
20260508035913 9 13 0.0 0.0 0.00 0.00 0.00 63 1012.5
20260508035413 9 13 0.0 0.0 0.00 0.00 0.00 63 1012.5
20260508034914 9 13 0.0 0.0 0.00 0.00 0.00 62 1012.6
20260508034414 9 13 0.0 0.0 0.00 0.00 0.00 62 1012.5
20260508033914 9 13 0.0 0.0 0.00 0.00 0.00 61 1012.6
20260508032915 10 13 0.0 0.0 0.00 0.00 0.00 57 1012.5
20260508032414 10 13 0.0 0.0 0.00 0.00 0.00 54 1012.4
20260508031914 10 13 0.0 0.0 0.00 0.00 0.00 54 1012.5
20260508031415 10 13 0.0 8.0 0.00 0.00 0.00 54 1012.6
20260508030913 10 13 0.0 8.0 0.00 0.00 0.00 54 1012.5
20260508030414 10 13 4.8 8.0 0.00 0.00 0.00 54 1012.5
20260508025913 10 14 6.4 9.7 0.00 0.00 0.00 53 1012.5
20260508025413 10 17 1.6 9.7 0.00 0.00 0.00 53 1012.6
20260508024415 10 14 3.2 8.0 0.00 0.00 0.00 54 1012.4
20260508023914 10 10 4.8 8.0 0.00 0.00 0.00 53 1012.3
20260508022915 10 25 3.2 11.3 0.00 0.00 0.00 54 1012.2
20260508022413 10 20 6.4 11.3 0.00 0.00 0.00 54 1012.1
20260508021914 11 15 8.0 9.7 0.00 0.00 0.00 54 1012.1
20260508021414 11 11 1.6 9.7 0.00 0.00 0.00 54 1012.1
20260508020914 11 12 4.8 9.7 0.00 0.00 0.00 54 1012.1
20260508020414 11 17 6.4 9.7 0.00 0.00 0.00 54 1012.1
20260508015914 11 15 3.2 9.7 0.00 0.00 0.00 54 1012.0
20260508015414 11 20 0.0 9.7 0.00 0.00 0.00 54 1011.9
20260508014914 11 12 6.4 11.3 0.00 0.00 0.00 54 1011.8
20260508014414 11 24 8.0 11.3 0.00 0.00 0.00 53 1011.9
20260508013915 11 13 8.0 11.3 0.00 0.00 0.00 53 1011.8
20260508012914 11 18 6.4 11.3 0.00 0.00 0.00 53 1011.6
20260508012415 11 18 4.8 8.0 0.00 0.00 0.00 52 1011.6
20260508011915 11 14 4.8 9.7 0.00 0.00 0.00 52 1011.6
20260508011414 12 21 4.8 9.7 0.00 0.00 0.00 51 1011.6
20260508010915 12 0 1.6 12.9 0.00 0.00 0.00 51 1011.5
20260508005915 12 12 6.4 11.3 0.00 0.00 0.00 50 1011.3
20260508005414 12 17 8.0 14.5 0.00 0.00 0.00 49 1011.2
20260508004915 12 18 6.4 14.5 0.00 0.00 0.00 49 1011.1
20260508003414 12 27 6.4 11.3 0.00 0.00 0.00 50 1010.8
20260508002914 13 13 6.4 9.7 0.00 0.00 0.00 49 1010.6
20260508002414 13 16 6.4 9.7 0.00 0.00 0.00 48 1010.5
20260508001914 13 20 3.2 11.3 0.00 0.00 0.00 48 1010.5
20260508001414 13 13 6.4 11.3 0.00 0.00 0.00 47 1010.4
20260508000915 13 19 8.0 9.7 0.00 0.00 0.00 47 1010.4
20260508000415 13 13 4.8 9.7 0.00 0.00 0.00 46 1010.3
20260507235915 13 23 6.4 12.9 0.00 0.00 0.00 45 1010.3
20260507235414 13 25 6.4 12.9 0.00 0.00 0.00 45 1010.3
20260507234415 14 14 8.0 12.9 0.00 0.00 0.00 43 1010.1
20260507233914 14 12 8.0 12.9 0.00 0.00 0.00 42 1010.1
20260507233414 14 20 9.7 12.9 0.00 0.00 0.00 41 1010.1
20260507232914 14 16 4.8 11.3 0.00 0.00 0.00 42 1010.0
20260507231914 14 14 4.8 12.9 0.00 0.00 0.00 41 1009.8
20260507231414 15 25 4.8 12.9 0.00 0.00 0.00 41 1009.7
20260507230915 15 27 9.7 12.9 0.00 0.00 0.00 40 1009.6
20260507230415 15 12 4.8 12.9 0.00 0.00 0.00 42 1009.5
20260507225914 15 8 8.0 14.5 0.00 0.00 0.00 41 1009.5
20260507225415 15 23 4.8 14.5 0.00 0.00 0.00 42 1009.4
20260507224915 15 7 8.0 14.5 0.00 0.00 0.00 41 1009.3
20260507224414 15 55 1.6 11.3 0.00 0.00 0.00 41 1009.3
20260507223914 15 11 8.0 11.3 0.00 0.00 0.00 40 1009.2
20260507223414 15 5 4.8 16.1 0.00 0.00 0.00 39 1009.1
20260507222914 15 0 3.2 16.1 0.00 0.00 0.00 38 1009.1
20260507221915 15 11 3.2 19.3 0.00 0.00 0.00 38 1009.0
20260507221414 15 26 9.7 19.3 0.00 0.00 0.00 38 1009.0
20260507220914 15 22 8.0 14.5 0.00 0.00 0.00 38 1009.0
20260507220414 15 35 4.8 14.5 0.00 0.00 0.00 39 1009.0
20260507215914 15 21 4.8 12.9 0.00 0.00 0.00 39 1009.0
20260507214914 16 26 3.2 19.3 0.00 0.00 0.00 37 1008.9
20260507213914 16 29 8.0 14.5 0.00 0.00 0.00 37 1008.9
20260507213414 16 11 4.8 14.5 0.00 0.00 0.00 37 1008.9
20260507212914 16 101 4.8 14.5 0.00 0.00 0.00 38 1008.9
20260507212414 16 76 3.2 14.5 0.00 0.00 0.00 38 1008.9
20260507211414 16 30 4.8 24.1 0.00 0.00 0.00 39 1008.9
20260507210915 16 46 6.4 19.3 0.00 0.00 0.00 38 1008.7
20260507210414 16 15 11.3 19.3 0.00 0.00 0.00 38 1008.7
20260507205415 16 0 8.0 16.1 0.00 0.00 0.00 40 1008.7
20260507204915 17 31 3.2 16.1 0.00 0.00 0.00 40 1008.6
20260507204416 17 73 3.2 14.5 0.00 0.00 0.00 40 1008.6
20260507203915 17 1 3.2 14.5 0.00 0.00 0.00 39 1008.5
20260507203414 17 12 3.2 14.5 0.00 0.00 0.00 38 1008.6
20260507202914 17 10 3.2 14.5 0.00 0.00 0.00 38 1008.4
20260507202414 17 9 6.4 12.9 0.00 0.00 0.00 38 1008.4
20260507201916 17 1 1.6 14.5 0.00 0.00 0.00 42 1008.3
20260507201414 17 123 1.6 14.5 0.00 0.00 0.00 42 1008.4
20260507200915 17 23 4.8 19.3 0.00 0.00 0.00 41 1008.5
20260507195914 17 100 1.6 14.5 0.00 0.00 0.00 45 1008.5
20260507195414 18 14 8.0 14.5 0.00 0.00 0.00 46 1008.4
20260507194914 18 83 3.2 14.5 0.00 0.00 0.00 51 1008.4
20260507194414 18 128 3.2 14.5 0.00 0.00 0.00 54 1008.4
20260507193914 18 176 3.2 11.3 0.00 0.00 0.00 55 1008.4
20260507193414 18 136 4.8 11.3 0.00 0.00 0.00 57 1008.5
20260507192914 17 134 4.8 11.3 0.00 0.00 0.00 58 1008.5
20260507192414 17 184 1.6 14.5 0.00 0.00 0.00 60 1008.6
20260507191914 17 175 3.2 14.5 0.00 0.00 0.00 59 1008.7
20260507191415 17 172 6.4 14.5 0.00 0.00 0.00 58 1008.8
20260507190914 17 159 1.6 14.5 0.00 0.00 0.00 59 1008.8
20260507190414 18 192 6.4 14.5 0.00 0.00 0.00 58 1008.8
20260507185915 18 123 4.8 11.3 0.00 0.00 0.00 57 1008.9
20260507184914 18 93 3.2 11.3 0.00 0.00 0.00 58 1008.8
20260507184415 18 126 3.2 12.9 0.00 0.00 0.00 58 1008.9
20260507183914 18 190 3.2 12.9 0.00 0.00 0.00 59 1008.9
20260507183414 18 185 1.6 19.3 0.00 0.00 0.00 58 1008.9
20260507182914 18 114 8.0 19.3 0.00 0.00 0.00 58 1009.1
20260507182414 17 173 4.8 19.3 0.00 0.00 0.00 59 1009.1
20260507181914 17 202 4.8 12.9 0.00 0.00 0.00 60 1009.2
20260507181414 17 247 4.8 20.9 0.00 0.00 0.00 61 1009.3
20260507180914 16 118 1.6 20.9 0.00 0.00 0.00 62 1009.4
20260507180413 16 171 8.0 20.9 0.00 0.00 0.00 62 1009.4
20260507175914 16 170 8.0 20.9 0.00 0.00 0.00 63 1009.4
20260507175414 16 137 3.2 20.9 0.00 0.00 0.00 65 1009.4
20260507174914 16 203 6.4 16.1 0.00 0.00 0.00 64 1009.5
20260507174415 16 160 6.4 16.1 0.00 0.00 0.00 64 1009.5
20260507173916 16 41 4.8 16.1 0.00 0.00 0.00 64 1009.6
20260507173414 16 120 8.0 16.1 0.00 0.00 0.00 63 1009.7
20260507172914 16 172 6.4 14.5 0.00 0.00 0.00 64 1009.7
20260507171414 16 188 8.0 16.1 0.00 0.00 0.00 65 1009.9
20260507170414 17 171 8.0 16.1 0.00 0.00 0.00 64 1009.9
20260507165415 16 169 4.8 16.1 0.00 0.00 0.00 65 1009.8
20260507164914 17 111 3.2 12.9 0.00 0.00 0.00 64 1009.7
20260507164414 17 196 4.8 19.3 0.00 0.00 0.00 63 1009.8
20260507163914 17 159 4.8 19.3 0.00 0.00 0.00 62 1009.9
20260507163414 17 165 9.7 19.3 0.00 0.00 0.00 63 1009.9
20260507162914 17 185 3.2 16.1 0.00 0.00 0.00 64 1009.9
20260507162414 17 164 8.0 16.1 0.00 0.00 0.00 64 1009.9
20260507161914 17 90 1.6 16.1 0.00 0.00 0.00 65 1009.9
20260507161414 17 174 1.6 16.1 0.00 0.00 0.00 66 1010.1
20260507160915 17 164 4.8 16.1 0.00 0.00 0.00 67 1010.2
20260507160415 16 220 1.6 16.1 0.00 0.00 0.00 69 1010.3
20260507155914 16 144 1.6 14.5 0.00 0.00 0.00 70 1010.3
20260507155414 15 141 4.8 14.5 0.00 0.00 0.00 70 1010.4
20260507154915 15 148 3.2 12.9 0.00 0.00 0.00 70 1010.4
20260507154415 15 151 0.0 12.9 0.00 0.00 0.00 70 1010.6
20260507153914 15 61 0.0 12.9 0.00 0.00 0.00 69 1010.6
20260507153414 15 166 4.8 12.9 0.00 0.00 0.00 69 1010.4
20260507152914 15 97 0.0 14.5 0.00 0.00 0.00 69 1010.5
20260507152415 15 97 4.8 14.5 0.00 0.00 0.00 71 1010.6
20260507151415 15 119 0.0 4.8 0.00 0.00 0.00 73 1010.6
20260507150913 14 119 0.0 4.8 0.00 0.00 0.00 75 1010.6
20260507150414 14 119 0.0 3.2 0.00 0.00 0.00 75 1010.7
20260507145914 14 119 0.0 11.3 0.00 0.00 0.00 77 1010.7
20260507144914 13 18 0.0 9.7 0.00 0.00 0.00 76 1010.8
20260507144416 13 8 3.2 9.7 0.00 0.00 0.00 78 1010.9
20260507142915 12 28 0.0 8.0 0.00 0.00 0.00 82 1011.2
20260507142414 12 28 1.6 9.7 0.00 0.00 0.00 83 1011.2
20260507141914 12 121 1.6 9.7 0.00 0.00 0.00 84 1011.2
20260507140416 11 28 0.0 9.7 0.00 0.00 0.00 86 1011.4
20260507135915 11 0 1.6 9.7 0.00 0.00 0.00 87 1011.5
20260507135414 11 129 1.6 8.0 0.00 0.00 0.00 87 1011.5
20260507134914 11 0 0.0 8.0 0.00 0.00 0.00 88 1011.5
20260507134414 11 5 1.6 8.0 0.00 0.00 0.00 89 1011.5
20260507133915 11 10 0.0 4.8 0.00 0.00 0.00 89 1011.4
20260507133414 10 10 0.0 8.0 0.00 0.00 0.00 89 1011.6
20260507132915 10 10 3.2 8.0 0.00 0.00 0.00 90 1011.7
20260507132414 10 7 0.0 9.7 0.00 0.00 0.00 91 1011.6
20260507131915 10 7 3.2 9.7 0.00 0.00 0.00 91 1011.6
20260507131414 10 14 0.0 8.0 0.00 0.00 0.00 92 1011.6
20260507130414 10 0 4.8 9.7 0.00 0.00 0.00 92 1011.8
20260507125414 10 347 0.0 0.0 0.00 0.00 0.00 94 1012.0
20260507123914 9 347 0.0 8.0 0.00 0.00 0.00 95 1012.0
20260507123414 9 347 0.0 8.0 0.00 0.00 0.00 96 1012.0
20260507122914 9 20 0.0 3.2 0.00 0.00 0.00 96 1012.0
20260507121914 9 20 1.6 4.8 0.00 0.00 0.00 98 1011.9
20260507120914 8 4 0.0 0.0 0.00 0.00 0.00 99 1012.1
20260507115914 8 4 0.0 0.0 0.00 0.00 0.00 100 1011.9
20260507115414 8 4 0.0 0.0 0.00 0.00 0.00 100 1011.8
20260507114915 8 4 0.0 0.0 0.00 0.00 0.00 100 1012.0
20260507114413 8 4 0.0 0.0 0.00 0.00 0.00 100 1012.0
20260507113914 8 4 0.0 0.0 0.00 0.00 0.00 100 1012.0
20260507113414 8 4 0.0 0.0 0.00 0.00 0.00 100 1012.2
20260507112914 8 4 0.0 0.0 0.00 0.00 0.00 100 1012.2
20260507112414 8 4 0.0 0.0 0.00 0.00 0.00 100 1012.1
20260507111914 8 4 0.0 0.0 0.00 0.00 0.00 100 1012.1
20260507111414 8 4 0.0 0.0 0.00 0.00 0.00 100 1012.3
20260507110914 8 4 0.0 0.0 0.00 0.00 0.00 100 1012.4
20260507110414 8 4 0.0 0.0 0.00 0.00 0.00 100 1012.2
20260507105914 8 4 0.0 0.0 0.00 0.00 0.00 100 1012.1
20260507105414 8 4 0.0 0.0 0.00 0.00 0.00 100 1012.6
20260507104914 8 4 0.0 0.0 0.00 0.00 0.00 100 1013.0
20260507104414 8 4 0.0 0.0 0.00 0.00 0.00 100 1012.3
20260507103915 8 4 0.0 0.0 0.00 0.00 0.00 100 1012.2
20260507103414 8 4 0.0 0.0 0.00 0.00 0.00 100 1012.7
20260507102913 8 4 0.0 0.0 0.00 0.00 0.00 100 1012.6
20260507102414 8 4 0.0 0.0 0.00 0.00 0.00 100 1012.1
20260507101914 8 4 0.0 0.0 0.00 0.00 0.00 100 1012.2
20260507101414 8 4 0.0 0.0 0.00 0.00 0.00 100 1012.2
20260507100914 8 4 0.0 0.0 0.00 0.00 0.00 100 1012.1
20260507100414 8 4 0.0 0.0 0.00 0.00 0.00 100 1012.3
20260507095914 8 4 0.0 0.0 0.00 0.00 0.00 100 1011.8
20260507095414 8 4 0.0 0.0 0.00 0.00 0.00 100 1011.4
20260507094914 8 4 0.0 0.0 0.00 0.00 0.00 100 1011.5
20260507094414 8 4 0.0 0.0 0.00 0.00 0.00 100 1011.9
20260507093414 8 4 0.0 0.0 0.00 0.00 0.00 100 1011.5
20260507092914 8 4 0.0 0.0 0.00 0.00 0.00 100 1011.2
20260507091914 8 4 0.0 0.0 0.00 0.00 0.00 100 1011.6
20260507091414 8 4 0.0 4.8 0.00 0.00 0.00 100 1011.8
20260507090914 8 4 0.0 4.8 0.00 0.00 0.00 100 1011.5
20260507090414 8 24 0.0 4.8 0.00 0.00 0.00 100 1011.5
20260507085915 8 24 0.0 4.8 0.00 0.00 0.00 100 1011.5
20260507085414 8 23 0.0 4.8 0.00 0.00 0.00 100 1011.7
20260507084414 9 8 0.0 8.0 0.00 0.00 0.00 100 1011.5
20260507083914 9 3 0.0 11.3 0.00 0.00 0.00 100 1011.4
20260507083415 9 8 3.2 11.3 0.00 0.00 0.00 100 1011.1
20260507082914 9 6 0.0 9.7 0.00 0.00 0.00 100 1011.0
20260507081914 9 18 1.6 8.0 0.00 0.00 0.00 100 1011.5
20260507081414 9 16 0.0 4.8 0.00 0.00 0.00 100 1011.6
20260507080916 9 16 0.0 8.0 0.00 0.00 0.00 100 1011.5
20260507080415 9 15 1.6 8.0 0.00 0.00 0.00 100 1011.0
20260507075914 9 13 0.0 8.0 0.00 0.00 0.00 100 1011.2
20260507075414 9 9 3.2 9.7 0.00 0.00 0.00 100 1011.0
20260507074914 9 12 3.2 9.7 0.00 0.00 0.00 100 1011.2
20260507073914 10 15 3.2 8.0 0.00 0.00 0.00 100 1011.2
20260507073414 10 11 0.0 8.0 0.00 0.00 0.00 100 1010.9
20260507072915 10 10 0.0 8.0 0.00 0.00 0.00 100 1010.8
20260507072414 10 11 3.2 8.0 0.00 0.00 0.00 100 1011.0
20260507071414 10 14 0.0 0.0 0.00 0.00 0.00 100 1010.6
20260507070414 10 14 0.0 0.0 0.00 0.00 0.00 100 1010.8
20260507065914 10 14 0.0 0.0 0.00 0.00 0.00 100 1010.6
20260507065414 10 14 0.0 0.0 0.00 0.00 0.00 100 1010.2
20260507064914 10 14 0.0 0.0 0.00 0.00 0.00 100 1010.2
20260507064414 10 14 0.0 0.0 0.00 0.00 0.00 100 1010.3
20260507063413 10 14 0.0 0.0 0.00 0.00 0.00 100 1010.2
20260507062915 10 14 0.0 0.0 0.00 0.00 0.00 100 1010.1
20260507062414 10 14 0.0 0.0 0.00 0.00 0.00 100 1010.1
20260507061415 10 14 0.0 0.0 0.00 0.00 0.00 100 1010.2
20260507055914 10 14 0.0 9.7 0.00 0.00 0.00 100 1009.7
20260507055415 10 30 1.6 9.7 0.00 0.00 0.00 100 1010.1
20260507054914 10 17 3.2 9.7 0.00 0.00 0.00 100 1010.2
20260507054416 11 18 1.6 9.7 0.00 0.00 0.00 100 1010.1
20260507053914 11 7 0.0 4.8 0.00 0.00 0.00 100 1010.0
20260507053414 11 14 0.0 0.0 0.00 0.00 0.00 100 1009.9
20260507052914 11 14 0.0 11.3 0.00 0.00 0.00 100 1010.0
20260507052415 11 14 0.0 11.3 0.00 0.00 0.00 100 1009.9
20260507051914 11 20 1.6 11.3 0.00 0.00 0.00 100 1010.0
20260507051414 11 11 1.6 11.3 0.00 0.00 0.00 100 1010.0